{"data":{"norad_id":46048,"epoch":"2026-05-25T02:33:33.666624Z","epoch_age_seconds":55940,"freshness":"FRESH","line1":"1 46048U 20055X   26145.10663966  .00003202  00000+0  11493-3 0  9996","line2":"2 46048  53.1595 118.5839 0001503  77.9370 282.1799 15.31692266320744","mean_motion":15.31692266,"eccentricity":0.0001503,"inclination_deg":53.1595,"raan_deg":118.5839,"arg_perigee_deg":77.937,"mean_anomaly_deg":282.1799,"bstar":0.00011493,"rev_number":32074,"period_min":94.01366266349,"perigee_km":469.7336602967,"apogee_km":471.79243965172,"semimajor_km":6848.9000499742,"source":"CELESTRAK","updated_at":"2026-05-25T13:38:16.460903Z"}}